Location: Ladrillo (historical)
(32.8195°N, 117.2231°W)
Time: 16:58:11
(UTC+00:00)

NOAA 18 - Pass Details

Date: 29 April 2021
Orbit: 840 x 861 km, 99.0° (Epoch: 11 May)

Event Time Altitude Azimuth Distance (km) Brightness Sun altitude
Exits shadow 03:43:25 13° 76° (ENE) 2,277 7.0 -15.2°
Maximum altitude 03:44:30 13° 63° (ENE) 2,233 7.1 -15.4°
Drops below altitude 10° 03:46:57 10° 36° (NE) 2,460 7.5 -15.8°
Sets 03:50:37 0° 11° (N) 3,398 8.6 -16.5°
